Regional Weather Roundup
Issued by NWS

Home | Current Version | Previous Version | Text Only | Print | Product List | Glossary On
Versions: 1 2 3 4 5 6 7 8 9 10 11 12 13 14 15 16 17 18 19 20 21 22 23 24 25 26 27 28 29 30 31 32 33 34 35 36 37 38 39 40 41 42 43 44 45 46 47 48 49 50
000
ASUS43 KMPX 010601
RWRMN
WEATHER ROUNDUP FOR MINNESOTA
NATIONAL WEATHER SERVICE TWIN CITIES/CHANHASSEN MN
100 AM CDT WED JUL 01 2015


NOTE: "FAIR" INDICATES FEW OR NO CLOUDS BELOW 12,000 FEET WITH NO
SIGNIFICANT WEATHER AND/OR OBSTRUCTIONS TO VISIBILITY. N/A MEANS
CURRENT SKY AND/OR WEATHER CONDITIONS ARE NOT AVAILABLE.

MNZ060>063-068>070-010700-
   Twin Cities Metro

CITY           SKY/WX    TMP DP  RH WIND       PRES   REMARKS
TWIN CITIES    CLOUDY    63  52  67 NE7       29.96
6HR MIN TEMP:  63; 6HR MAX TEMP:  73;

ST PAUL        PTCLDY    62  52  69 E6        29.97
CRYSTAL        PTCLDY    64  53  67 E6        29.95
BLAINE         PTCLDY    63  55  77 E6        29.97S
LAKEVILLE      PTCLDY    57  55  94 E6        29.95F
EDEN PRAIRIE   PTCLDY    64  53  67 E10       29.94
6HR MIN TEMP:  64; 6HR MAX TEMP:  76;

SOUTH ST PAUL  PTCLDY    62  51  66 E7        29.96S
LAKE ELMO      FAIR      59  52  77 E3        29.99R
$$
MNZ001>005-007-008-013>017-022>024-027-028-010700-
   Northwest Minnesota

CITY           SKY/WX    TMP DP  RH WIND       PRES   REMARKS
BEMIDJI        MOCLDY    57  55  93 CALM      29.95S
HALLOCK        MOCLDY    61  57  88 SE5       29.92S
ROSEAU         MOCLDY    59  54  82 SE3       29.95R
WARROAD        MOCLDY    61  55  82 CALM      29.95S
THIEF RVR FALL MOCLDY    61  54  77 CALM      29.94S
CROOKSTON      MOCLDY    63  55  77 CALM      29.93S
FOSSTON        CLOUDY    55  48  76 CALM      29.95S
DETROIT LAKES  CLOUDY    64  59  82 CALM      29.95R
MOORHEAD       CLOUDY    66  63  88 CALM      29.92S
PARK RAPIDS    CLOUDY    66  56  70 SE3       29.95
MAHNOMEN       FAIR      63  58  84 CALM      29.94S
$$
MNZ006-009>011-018-025>026-010700-
   North Central Minnesota

CITY           SKY/WX    TMP DP  RH WIND       PRES   REMARKS
BAUDETTE       MOCLDY    58  53  84 SE3       29.95
FLAG ISLAND    PTCLDY    68  59  73 S9        29.94S
INTL FALLS     CLEAR     48  46  93 CALM      29.97
6HR MIN TEMP:  48; 6HR MAX TEMP:  68;

WASKISH        MOCLDY    57  54  88 CALM      29.96S
BIG FORK       PTCLDY    54  52  94 CALM      29.98R
LONGVILLE      MOCLDY    55  54  94 CALM      29.96R
GRAND RAPIDS   PTCLDY    55  52  88 SE3       29.98R
CRANE LAKE     CLEAR     46  45  93 CALM      29.99S
COOK           PTCLDY    52  50  93 CALM      29.99R
WALKER         FAIR      55  53  94 CALM      29.95S
$$
MNZ012-019>021-037-010700-
   Northeast Minnesota

CITY           SKY/WX    TMP DP  RH WIND       PRES   REMARKS
DULUTH         PTCLDY    50  47  89 E5        29.99
6HR MIN TEMP:  49; 6HR MAX TEMP:  60;

ELY            CLEAR     48  46  93 CALM      30.00R
HIBBING        PTCLDY    48  46  93 CALM      30.00
EVELETH        PTCLDY    46  45  93 CALM      30.01R
DULUTH HARBOR  CLEAR     57  54  88 NE12      30.00S
TWO HARBORS    CLEAR     50  45  81 VRB5      29.99R
SILVER BAY     CLEAR     45  43  93 CALM      29.99S
GRAND MARAIS     N/A     47  42  83 NW3       30.00S
G MARAIS ARPRT CLEAR     39  36  87 CALM      30.02R
$$
MNZ029>031-032-039>041-046>048-054>057-064-010700-
   West Central Minnesota

CITY           SKY/WX    TMP DP  RH WIND       PRES   REMARKS
FERGUS FALLS   CLOUDY    66  63  88 CALM      29.92R
WHEATON        MOCLDY    61  59  94 CALM      29.94R
MORRIS         CLOUDY    64  63  94 E5        29.91S
ALEXANDRIA     CLOUDY    66  58  75 SE8       29.95
ELBOW LAKE     FAIR      64  62  93 CALM      29.92R
WADENA           N/A     64  57  77 CALM      29.95R
GLENWOOD       CLOUDY    63  59  88 SE6       29.95S
APPLETON       LGT RAIN  64  61  88 SE6       29.91S
BENSON         CLOUDY    66  59  77 SE6       29.92S
ORTONVILLE     MOCLDY    63  59  88 E6        29.92R
MADISON        PTCLDY    61  57  88 E6        29.92S
WILLMAR        FAIR      66  61  82 SE7       29.95S
$$
MNZ033>034-036-042>043-049>051-058-059-010700-
   Central Minnesota

CITY           SKY/WX    TMP DP  RH WIND       PRES   REMARKS
ST CLOUD       MOCLDY    62  57  83 E3        29.95
6HR MIN TEMP:  62; 6HR MAX TEMP:  73;

SAUK CENTRE    FAIR      64  60  87 SE5       29.95S
PAYNESVILLE    CLOUDY    63  56  77 E6        29.96R
AITKIN         MOCLDY    57  52  82 CALM      29.96R
PINE RIVER     CLOUDY    61  57  88 SE5       29.99S
BRAINERD       CLOUDY    62  54  74 SE6       29.96
STAPLES        CLOUDY    63  55  77 SE5       29.96R
LONG PRAIRIE   MOCLDY    63  57  82 E3        29.95S
LITTLE FALLS   CLOUDY    63  54  72 E3        29.95S
LITCHFIELD     MOCLDY    66  61  82 SE5       29.96R
BUFFALO        MOCLDY    63  55  73 E3        29.96S
MAPLE LAKE     MOCLDY    65  58  77 SE3       29.97R
$$
MNZ037-044-045-052-053-010700-
   East Central Minnesota

CITY           SKY/WX    TMP DP  RH WIND       PRES   REMARKS
PRINCETON      MOCLDY    63  57  82 CALM      29.97R
MORA           MOCLDY    55  54  94 CALM      29.99S
CAMBRIDGE      PTCLDY    63  52  67 CALM      29.96S
RUSH CITY      PTCLDY    56  54  91 E3        29.98S
MOOSE LAKE     PTCLDY    50  48  93 CALM      29.98S
HINCKLEY       FAIR      55  54  94 E3        29.98S
CLOQUET        CLEAR     50  46  87 CALM      29.99S
MCGREGOR       PTCLDY    54  50  87 CALM      29.99R
$$
MNZ071>073-080-081-089-090-097-098-010700-
   Southwest Minnesota

CITY           SKY/WX    TMP DP  RH WIND       PRES   REMARKS
MONTEVIDEO     MOCLDY    64  63  94 CALM      29.94R
GRANITE FALLS  PTCLDY    64  60  88 CALM      29.94S
CANBY          PTCLDY    63  61  94 CALM      29.93R FOG
MARSHALL       PTCLDY    64  57  77 SE7         N/A
REDWOOD FALLS  PTCLDY    64  60  87 E8        29.93
OLIVIA         MOCLDY    64  55  72 E6        29.93S
PIPESTONE      PTCLDY    64  61  88 SE5       29.93S
WINDOM         PTCLDY    64  59  82 E5        29.94R
WORTHINGTON    CLEAR     61  55  82 E5        29.93S
JACKSON        CLEAR     63  59  88 E6        29.94R
TRACY          CLEAR     64  62  92 CALM      29.94R
SLAYTON        CLEAR     61  59  95 CALM      29.94S
$$
MNZ065>067-074>077-082>085-091>093-010700-
   South Central Minnesota

CITY           SKY/WX    TMP DP  RH WIND       PRES   REMARKS
MANKATO        MOCLDY    64  55  72 E8        29.93F
NEW ULM        MOCLDY    64  57  77 E7        29.93R
ST JAMES       MOCLDY    64  61  88 E5        29.94R
FAIRMONT       PTCLDY    63  54  72 E6        29.92R
GLENCOE        MOCLDY    65  58  78 E7        29.95R
FARIBAULT      PTCLDY    61  55  82 E7        29.95F
OWATONNA       PTCLDY    61  55  82 E8        29.95F
WASECA         PTCLDY    63  55  77 E8        29.96S
ALBERT LEA     PTCLDY    63  55  77 E7        29.94F
$$
MNZ078>079-086>088-094>096-010700-
   Southeast Minnesota

CITY           SKY/WX    TMP DP  RH WIND       PRES   REMARKS
ROCHESTER      PTCLDY    58  52  80 NE7       29.97
6HR MIN TEMP:  58; 6HR MAX TEMP:  71;

RED WING       PTCLDY    59  52  77 CALM      29.96R
STANTON        MOCLDY    59  55  88 CALM      29.95S
DODGE CENTER   MOCLDY    57  55  94 E5        29.96S
WINONA         CLEAR     61  52  72 CALM      29.96R
AUSTIN         PTCLDY    57  55  94 NE3       29.95S
PRESTON        PTCLDY    57  52  83 NE3       29.96R
$$
ABBREVIATIONS USED IN REMARKS
   TC - TEMPERATURES IN CELSIUS
  WCI - WIND CHILL INDEX
   HX - HEAT INDEX
  VSB - VISIBILITY
$$


USA.gov is the U.S. government's official web portal to all federal, state and local government web resources and services.